Hourly Data Report for April 10, 2017

CLYDE RIVER A
NUNAVUT

70°29'09.000" N
68°31'01.000" W
26.50 m
2400804
71090
YCY

Download Data

Hourly Data (April 2017)
Hourly Data Report for April 10, 2017
TIME
LST
Temp Definition
°C
Dew Point Definition
°C
Rel Hum Definition
%
Precip. Amount Definition
mm

Wind Dir Definition
10's deg

Wind Spd Definition
km/h
Visibility Definition
km
Stn Press Definition
kPa
Hmdx Definition


Wind Chill Definition


Weather Definition


00:00 -17.2 -18.9 87 0.0 13 24 16.1 100.52   -28 LegendNANA
01:00 -17.5 -19.3 86 0.0 14 28 16.1 100.52   -29 LegendNANA
02:00 -17.9 -19.8 85 0.0 13 24 16.1 100.51   -29 LegendNANA
03:00 -17.2 -19.2 85 0.0 13 32 16.1 100.50   -29 LegendNANA
04:00 -16.7 -18.8 84 0.0 18 21 16.1 100.51   -27 LegendNANA
05:00 -16.0 -17.7 87 0.0 19 8 16.1 100.53   -22 Snow
06:00 -15.9 -17.8 85 0.0 15 5 16.1 100.53   -20 Snow
07:00 -15.5 -17.3 87 0.0 20 5 16.1 100.52   -19 LegendNANA
08:00 -15.1 -16.8 87 0.0 14 28 16.1 100.48   -26 LegendNANA
09:00 -14.4 -16.3 86 0.0 12 28 16.1 100.46   -25 LegendNANA
10:00 -12.9 -16.0 78 0.0 18 11 16.1 100.47   -19 LegendNANA
11:00 -13.0 -14.9 86 0.0 13 26 16.1 100.42   -23 Snow
12:00 -12.1 -14.4 83 0.0 12 26 16.1 100.40   -22 LegendNANA
13:00 -12.4 -14.4 85 0.0 12 28 16.1 100.38   -22 LegendNANA
14:00 -12.6 -14.5 86 0.0 12 24 16.1 100.40   -22 LegendNANA
15:00 -13.1 -14.7 88 0.0 13 21 16.1 100.40   -22 LegendNANA
16:00 -13.8 -15.1 90 0.0 13 11 16.1 100.42   -20 LegendNANA
17:00 -13.6 -15.5 86 0.0 13 9 16.1 100.39   -19 LegendNANA
18:00 -13.4 -15.4 85 0.0 12 8 16.1 100.38   -18 LegendNANA
19:00 -13.6 -16.0 82 0.0 14 17 16.1 100.40   -22 LegendNANA
20:00 -14.0 -15.6 88 0.0 12 13 16.1 100.39   -21 LegendNANA
21:00 -14.4 -15.7 90 0.0 10 9 16.1 100.37   -20 LegendNANA
22:00 -14.9 -15.7 94 0.0 8 5 16.1 100.37   -18 LegendNANA
23:00 -14.6 -15.8 91 0.0 5 5 16.1 100.36   -18 LegendNANA

Notes on Data Quality.

Legend

  • E = Estimated
  • M = Missing
  • NA = Not Available*
  • [empty] = Indicates an unobserved value
Date modified: